Regional Weather Roundup
Issued by NWS Midland/Odessa, TX

Skip options and go directly to product.
Home | Oldest Version | Previous Version | Current Version | All | Text Only | Save Text | Print | Product List | Glossary Off

Skip product version selection by date and time.   

375
ASUS44 KMAF 230710
RWRMAF
MIDLAND AREA WEATHER ROUNDUP
NATIONAL WEATHER SERVICE MIDLAND TX
200 AM CDT SAT MAY 23 2015

...IN SOUTHWEST TEXAS AND SOUTHEAST NEW MEXICO...

CITY           SKY/WX    TMP DP  RH WIND       PRES   REMARKS
ALPINE         MOCLDY    68  58  69 S26G36    30.07S
ANDREWS        CLOUDY    68  66  92 S15       30.00R
ARTESIA        CLOUDY    68  66  94 S15G22    29.96R
BIG SPRING     MOCLDY    74  68  82 E17G24    30.00F
CARLSBAD       MOCLDY    69  64  84 SE12      29.92F
DRYDEN           N/A     75  66  73 S13G20    29.96F
FORT STOCKTON  CLOUDY    71  64  78 S17G25    29.93R
GUAD PASS      MOCLDY    60  59  96 NE9       30.07S FOG
HOBBS          CLOUDY    64  64 100 SE15      29.99F FOG
MARFA          MOCLDY    64  59  82 SE15      30.10S
MIDLAND AIRPK  CLOUDY    71  66  83 SE17G23   29.98R
MIDLAND INTL   CLOUDY    70  65  84 SE18G26   29.98R
ODESSA         CLOUDY    70  64  81 S20G30    29.99R
PECOS          MOCLDY    69  64  85 E9        29.91S
PRESIDIO       PTSUNNY   81  54  38 E7G20     29.94R
SEMINOLE       CLOUDY    67  65  93 SE10      30.02F
SNYDER         CLOUDY    67  66  96 SE13      30.03F
WINK           CLOUDY    71  65  81 SE15G23   29.93F
$$
...OTHER STATIONS IN TEXAS...

CITY           SKY/WX    TMP DP  RH WIND       PRES   REMARKS
ABILENE        CLOUDY    71  68  90 SE15      30.05S
AMARILLO       FOG       57  57 100 SE15      30.05F VSB 3/4
AUSTIN         CLOUDY    74  72  93 SE6       30.06S
BROWNSVILLE    PTCLDY    79  76  90 SE9       30.03S
CORPUS CHRISTI MOCLDY    79  75  87 SE10      30.04S
DALLAS FTW     CLOUDY    68  67  96 SE7       30.08S
DEL RIO        CLOUDY    76  72  87 SE7       30.01S
EL PASO        CLOUDY    76  18  11 W18G30    29.94S
HOUSTON INT    MOCLDY    74  72  93 E9        30.08F
LUBBOCK        FOG       62  62 100 SE9       30.05S VSB 1/4
SAN ANGELO     CLOUDY    71  67  87 CALM      30.03S
SAN ANTONIO    CLOUDY    76  73  91 SE9       30.07S
WACO           CLOUDY    71  68  90 SE13      30.08S
WICHITA FALLS  NOT AVBL
$$
...OTHER LOCATIONS IN NEW MEXICO...

CITY           SKY/WX    TMP DP  RH WIND       PRES   REMARKS
ALAMAGORDO     PTCLDY    70  37  30 S15       29.95S
ALBUQUERQUE    MOCLDY    61  25  25 SW5       29.98R
CANNON AFB     CLOUDY    59  59 100 SE17      29.99F FOG
CLOVIS         CLOUDY    59  57  94 SE20G28   29.98F
HOLLOMAN AFB   MOCLDY    69  48  47 SW8       29.93R
ROSWELL        CLOUDY    67  62  84 S15       29.95R
RUIDOSO        PTCLDY    52  46  82 SW10      30.10S
SANTA FE       PTCLDY    55  50  83 SE22G28   30.00F
TRUTH OR CONSE PTCLDY    64  20  18 W12       29.94R
TUCUMCARI      CLOUDY    63  57  81 S5        29.96S
$$

USA.gov is the U.S. government's official web portal to all federal, state and local government web resources and services.